{"data":{"norad_id":59684,"epoch":"2026-09-21T14:50:58.729056Z","epoch_age_seconds":74602,"freshness":"FRESH","line1":"1 59684U 24086C   26264.61873529  .00001178  00000+0  52330-4 0  9996","line2":"2 59684  43.0030  25.8958 0001431 268.9025  91.1663 15.27586861134173","mean_motion":15.27586861,"eccentricity":0.0001431,"inclination_deg":43.003,"raan_deg":25.8958,"arg_perigee_deg":268.9025,"mean_anomaly_deg":91.1663,"bstar":5.233e-5,"rev_number":13417,"period_min":94.2663253242,"perigee_km":482.04671902385,"apogee_km":484.01038460478,"semimajor_km":6861.1655518143,"source":"CELESTRAK","updated_at":"2026-09-22T09:00:49.031712Z"}}